Weather History for Clarksville, TX

Change the Weather History Date:

Thursday, July 18, 2013

  Actual Average (KPRX) Record (KPRX)
Temperature  
Mean Temperature 84 °F -  
Max Temperature 98 °F 91 °F 105 °F (2006)
Min Temperature 72 °F 70 °F 62 °F (2014)
Cooling Degree Days 20    
Growing Degree Days 34 (Base 50)    
Moisture  
Dew Point 67 °F    
Average Humidity 60    
Maximum Humidity 95    
Minimum Humidity 29    
Precipitation  
Precipitation 0.00 in - - ()
Sea Level Pressure  
Sea Level Pressure 30.12 in    
Wind  
Wind Speed 1 mph (SSE)    
Max Wind Speed 22 mph    
Max Gust Speed 30 mph    
Visibility 8 miles    
Events      
Averages and records for this station are not official NWS values.
T = Trace of Precipitation, MM = Missing Value Source: NWS Daily Summary

Daily Weather History Graph

Daily Weather History Graph

Search for Another Location

Airport:

Trip Planner

Search our weather history database for the weather conditions in past years. The results will help you decide how hot, cold, wet, or windy it might be!

Date:

Astronomy

Jul. 18, 2013 Rise Set
Actual Time 6:23 AM CDT 8:29 PM CDT
Civil Twilight 5:55 AM CDT 8:57 PM CDT
Nautical Twilight 5:20 AM CDT 9:31 PM CDT
Astronomical Twilight 4:43 AM CDT 10:08 PM CDT
Moon 4:28 PM CDT (7/18) 2:11 AM CDT (7/18)
Length of Visible Light 15h 02m
Length of Day
14h 06m
Waxing Gibbous, 77% of the Moon is Illuminated
Jul 18
Waxing Gibbous
Jul 22
Full
Jul 29
Last Quarter
Aug 6
New
Aug 14
First Quarter

Hourly Weather History & Observations

Time (CDT) Temp. Heat Index Dew Point Humidity Pressure Visibility Wind Dir Wind Speed Gust Speed Precip Events Conditions
12:15 AM 81.0 °F 84.1 °F 69.1 °F 67% 30.18 in 7.0 mi Calm Calm - N/A   Clear
12:35 AM 80.4 °F 83.5 °F 69.3 °F 69% 30.18 in 10.0 mi Calm Calm - N/A   Clear
12:55 AM 78.1 °F - 69.4 °F 75% 30.18 in 10.0 mi Calm Calm - N/A   Clear
1:15 AM 77.2 °F - 69.4 °F 77% 30.17 in 10.0 mi Calm Calm - N/A   Clear
1:35 AM 77.7 °F - 69.8 °F 76% 30.17 in 7.0 mi Calm Calm - N/A   Clear
1:55 AM 77.7 °F - 69.8 °F 76% 30.17 in 10.0 mi Calm Calm - N/A   Clear
2:15 AM 77.4 °F - 69.3 °F 76% 30.17 in 10.0 mi Calm Calm - N/A   Clear
2:35 AM 76.5 °F - 69.6 °F 79% 30.17 in 10.0 mi Calm Calm - N/A   Clear
2:55 AM 76.3 °F - 69.8 °F 80% 30.17 in 10.0 mi Calm Calm - N/A   Scattered Clouds
3:15 AM 75.4 °F - 69.3 °F 81% 30.17 in 10.0 mi Calm Calm - N/A   Scattered Clouds
3:35 AM 74.5 °F - 70.9 °F 88% 30.16 in 10.0 mi Calm Calm - N/A   Clear
3:55 AM 73.6 °F - 70.3 °F 90% 30.16 in 10.0 mi Calm Calm - N/A   Clear
4:15 AM 73.6 °F - 70.7 °F 91% 30.16 in 7.0 mi Calm Calm - N/A   Clear
4:35 AM 73.2 °F - 70.9 °F 92% 30.16 in 10.0 mi Calm Calm - N/A   Clear
4:55 AM 72.7 °F - 70.3 °F 92% 30.16 in 10.0 mi Calm Calm - N/A   Clear
5:15 AM 72.7 °F - 70.7 °F 93% 30.17 in 10.0 mi Calm Calm - N/A   Clear
5:35 AM 72.3 °F - 70.3 °F 93% 30.17 in 7.0 mi Calm Calm - N/A   Clear
5:55 AM 72.3 °F - 70.5 °F 94% 30.17 in 7.0 mi Calm Calm - N/A   Clear
6:15 AM 72.3 °F - 70.7 °F 95% 30.18 in 7.0 mi Calm Calm - N/A   Clear
6:35 AM 73.9 °F - 72.0 °F 93% 30.18 in 7.0 mi Calm Calm - N/A   Clear
6:55 AM 73.2 °F - 71.2 °F 93% 30.19 in 7.0 mi Calm Calm - N/A   Clear
7:15 AM 73.4 °F - 71.6 °F 94% 30.18 in 5.0 mi Calm Calm - N/A   Clear
7:35 AM 73.9 °F - 72.1 °F 94% 30.18 in 7.0 mi Calm Calm - N/A   Clear
7:55 AM 75.6 °F - 73.2 °F 92% 30.18 in 7.0 mi Calm Calm - N/A   Clear
8:15 AM 77.4 °F - 73.4 °F 88% 30.19 in 10.0 mi Calm Calm - N/A   Clear
8:35 AM 79.9 °F - 73.6 °F 81% 30.19 in 10.0 mi Calm Calm - N/A   Clear
8:55 AM 81.3 °F 86.5 °F 73.4 °F 77% 30.19 in 7.0 mi Calm Calm - N/A   Clear
9:15 AM 82.4 °F 87.0 °F 71.2 °F 69% 30.19 in 10.0 mi Calm Calm - N/A   Clear
9:35 AM 84.2 °F 89.0 °F 70.7 °F 64% 30.19 in 10.0 mi Calm Calm - N/A   Clear
9:55 AM 85.6 °F 90.4 °F 70.3 °F 60% 30.19 in 10.0 mi Calm Calm - N/A   Clear
10:15 AM 88.0 °F 92.5 °F 69.3 °F 54% 30.18 in 7.0 mi Calm Calm - N/A   Clear
10:35 AM 90.1 °F 93.5 °F 67.3 °F 47% 30.19 in 7.0 mi Calm Calm - N/A   Clear
10:55 AM 90.7 °F 93.6 °F 66.9 °F 45% 30.19 in 10.0 mi Calm Calm - N/A   Clear
11:15 AM 89.6 °F 92.2 °F 66.6 °F 46% 30.18 in 10.0 mi Calm Calm - N/A   Clear
11:35 AM 90.7 °F 93.2 °F 65.8 °F 44% 30.18 in 10.0 mi WNW 4.6 mph - N/A   Scattered Clouds
11:55 AM 91.8 °F 93.8 °F 65.3 °F 41% 30.17 in 7.0 mi Calm Calm - N/A   Scattered Clouds
12:15 PM 91.2 °F 92.9 °F 64.8 °F 41% 30.16 in 7.0 mi Calm Calm - N/A   Clear
12:35 PM 92.3 °F 93.4 °F 63.3 °F 38% 30.16 in 7.0 mi Calm Calm - N/A   Clear
12:55 PM 91.4 °F 92.8 °F 63.9 °F 40% 30.15 in 5.0 mi Calm Calm - N/A   Scattered Clouds
1:15 PM 94.8 °F 94.5 °F 59.9 °F 31% 30.14 in 10.0 mi Calm Calm - N/A   Scattered Clouds
1:35 PM 94.8 °F 94.9 °F 61.0 °F 32% 30.13 in 7.0 mi Calm Calm - N/A   Clear
1:55 PM 95.0 °F 95.6 °F 61.5 °F 33% 30.12 in 7.0 mi WSW 4.6 mph - N/A   Clear
2:15 PM 96.8 °F 98.0 °F 62.1 °F 32% 30.10 in 7.0 mi ENE 3.5 mph - N/A   Clear
2:35 PM 96.4 °F 97.4 °F 61.7 °F 32% 30.09 in 7.0 mi SE 3.5 mph - N/A   Scattered Clouds
2:55 PM 97.2 °F 97.6 °F 60.6 °F 30% 30.08 in 7.0 mi SSE 5.8 mph - N/A   Scattered Clouds
3:15 PM 96.8 °F 96.7 °F 59.9 °F 29% 30.07 in 7.0 mi SW 3.5 mph - N/A   Clear
3:35 PM 96.3 °F 96.3 °F 59.9 °F 30% 30.06 in 7.0 mi Calm Calm - N/A   Scattered Clouds
3:55 PM 94.8 °F 95.3 °F 61.3 °F 33% 30.05 in 7.0 mi Calm Calm - N/A   Clear
4:15 PM 96.4 °F 96.5 °F 59.9 °F 30% 30.04 in 7.0 mi Calm Calm - N/A   Clear
5:15 PM 97.0 °F 97.4 °F 60.4 °F 30% 30.02 in 4.0 mi WSW 3.5 mph - N/A   Clear
5:35 PM 95.5 °F 96.0 °F 61.0 °F 32% 30.01 in 5.0 mi NW 3.5 mph - N/A   Clear
5:55 PM 96.6 °F 97.3 °F 61.7 °F 31% 30.01 in 7.0 mi Calm Calm - N/A   Clear
6:15 PM 96.8 °F 97.5 °F 61.3 °F 31% 30.01 in 5.0 mi Calm Calm - N/A   Clear
6:35 PM 96.3 °F 97.2 °F 61.7 °F 32% 30.00 in 10.0 mi Calm Calm - N/A   Scattered Clouds
6:55 PM 96.3 °F 96.7 °F 61.2 °F 31% 30.01 in 10.0 mi NNW 4.6 mph - N/A   Scattered Clouds
7:15 PM 95.2 °F 95.9 °F 62.1 °F 33% 30.01 in 7.0 mi NNW 5.8 mph - N/A   Scattered Clouds
7:35 PM 93.9 °F 95.2 °F 63.3 °F 36% 30.01 in 7.0 mi NW 3.5 mph - N/A   Clear
7:55 PM 92.8 °F 95.2 °F 65.5 °F 40% 30.02 in 10.0 mi Calm Calm - N/A   Clear
8:15 PM 92.7 °F 94.4 °F 64.6 °F 39% 30.03 in 10.0 mi Calm Calm - N/A   Scattered Clouds
8:35 PM 92.3 °F 93.8 °F 64.2 °F 39% 30.03 in 10.0 mi Calm Calm - N/A   Scattered Clouds
8:55 PM 87.4 °F 88.8 °F 64.6 °F 46% 30.04 in 10.0 mi NNE 4.6 mph - N/A   Scattered Clouds
9:15 PM 82.2 °F 84.2 °F 65.5 °F 57% 30.06 in 10.0 mi SSE 21.9 mph 29.9 mph N/A   Mostly Cloudy
9:35 PM 77.7 °F - 66.6 °F 68% 30.06 in 10.0 mi SSW 8.1 mph 20.7 mph N/A   Overcast
9:55 PM 78.1 °F - 65.3 °F 65% 30.06 in 10.0 mi SW 6.9 mph - N/A   Scattered Clouds
10:15 PM 80.1 °F 81.8 °F 64.8 °F 59% 30.08 in 10.0 mi East 9.2 mph 20.7 mph N/A   Scattered Clouds
10:35 PM 79.3 °F - 65.3 °F 62% 30.09 in 10.0 mi ESE 6.9 mph - N/A   Clear
10:55 PM 79.9 °F - 66.6 °F 64% 30.08 in 10.0 mi ESE 9.2 mph - N/A   Clear
11:15 PM 79.3 °F - 67.1 °F 66% 30.08 in 10.0 mi ESE 8.1 mph - N/A   Clear
11:35 PM 78.8 °F - 67.1 °F 67% 30.07 in 10.0 mi ESE 5.8 mph - N/A   Clear
11:55 PM 78.8 °F - 67.3 °F 68% 30.06 in 10.0 mi SE 8.1 mph - N/A   Clear